Voltar ao catálogo

YAOGAN 25C

AtivoMilitarLEO
NORAD 40340·PAYLOAD·🇨🇳 China

Lançado Dec 10, 2014 de Jiuquan Satellite Launch Center

Loading…

Próximas Passagens (próximas 24 horas)

TLE

AtualizadoSource: Space-Track

Época: Sep 14, 2026, 15:07 UTC

1 40340U 14080C   26257.62999118 -.00000119  00000-0 -31023-4 0  9997
2 40340  63.3840  80.8400 0374751  10.1003 350.7290 13.45355663577780

Acompanhe YAOGAN 25C em tempo real com AllMySat

Download on the App Store